Hourly Data Report for October 24, 2014

All times are specified in Local Standard Time (LST). Add 1 hour to adjust for Daylight Saving Time where and when it is observed.

IQALUIT CLIMATE
NUNAVUT

63°44'50.000" N
68°32'40.000" W
33.50 m
2402592
71321
XFB

Download Data

Hourly Data (October 2014)
Hourly Data Report for October 24, 2014
Temp Definition
°C
Dew Point Temp Definition
°C
Rel Hum Definition
%
Wind Dir Definition
10's deg

Wind Spd Definition
km/h
Visibility Definition
km
Stn Press Definition
kPa
Hmdx Definition


Wind Chill Definition


Weather Definition


TIME
00:00 -8.0 -11.4 76 31 28   101.68   -17 LegendNANA
01:00 -7.8 -11.8 73 31 35   101.70   -17 LegendNANA
02:00 -7.7 -11.6 74 31 41   101.73   -18 LegendNANA
03:00 -7.8 -10.7 79 31 40   101.78   -18 LegendNANA
04:00 -8.6 -11.2 81 33 33   101.82   -18 LegendNANA
05:00 -8.7 -11.7 79 33 21   101.89   -16 LegendNANA
06:00 -8.8 -12.0 77 34 18   101.94   -16 LegendNANA
07:00 -9.0 -12.3 77 33 26   101.99   -18 LegendNANA
08:00 -9.0 -12.2 78 32 14   102.05   -15 LegendNANA
09:00 -8.8 -11.9 78 32 25   102.05   -17 LegendNANA
10:00 -8.3 -11.5 78 32 22   102.10   -16 LegendNANA
11:00 -8.3 -11.4 78 32 19   102.11   -16 LegendNANA
12:00 -8.3 -11.5 77 33 22   102.13   -16 LegendNANA
13:00 -8.4 -11.4 78 33 18   102.10   -15 LegendNANA
14:00 -8.3 -11.4 79 31 15   102.12   -15 LegendNANA
15:00 -8.6 -11.5 79 32 7   102.14   -12 LegendNANA
16:00 -8.5 -12.0 76 34 13   102.16   -14 LegendNANA
17:00 -9.5 -13.1 75 36 11   102.16   -15 LegendNANA
18:00 -9.9 -13.2 77 33 9   102.18   -15 LegendNANA
19:00 -12.2 -15.8 74 33 9   102.16   -17 LegendNANA
20:00 -13.1 -16.0 79 36 12   102.09   -20 LegendNANA
21:00 -14.3 -17.3 78 34 11   102.06   -21 LegendNANA
22:00 -13.9 -16.7 79 34 10   102.02   -20 LegendNANA
23:00 -15.6 -18.2 80 34 10   101.99   -22 LegendNANA

Notes on Data Quality.

Legend

  • E = Estimated
  • M = Missing
  • NA = Not Available
  • ‡ = Partner data that is not subject to review by the National Climate Archives
Date modified: